Stations météo

Publicité
Le Havre/Octeville, France (7046): Température de l'air & dewpoint: 17.01.2017 01:00:00 - 23.01.2017 01:00:00 (CET)Le Havre/Octeville, France (7046): Vitesse du vent & gusts: 17.01.2017 01:00:00 - 23.01.2017 01:00:00 (CET)Le Havre/Octeville, France (7046): Direction du vent: 17.01.2017 01:00:00 - 23.01.2017 01:00:00 (CET)Le Havre/Octeville, France (7046): reduced air pressure: 17.01.2017 01:00:00 - 23.01.2017 01:00:00 (CET)Le Havre/Octeville, France (7046): visibility: 17.01.2017 01:00:00 - 23.01.2017 01:00:00 (CET)Le Havre/Octeville, France (7046): Quantités de précipitations: 17.01.2017 01:00:00 - 23.01.2017 01:00:00 (CET)
Date & Time tt [°C] td [°C] ff [km/h] ff [knt] fx [km/h] fx [knt] dd ppp [hPa] vv [km] rr [mm]
23.01.2017 01:00:00 -1,3 -5,3 5 3 8 4 E 1028,4 7 0,0
23.01.2017 00:00:00 -0,5 -4,4 5 3 8 4 ENE 1028,4 7 0,0
22.01.2017 23:00:00 -0,8 -4,5 7 4 10 6 N 1028,2 7 0,0
22.01.2017 22:00:00 0,4 -2,8 8 4 11 6 ENE 1028,0 3,7 0,0
22.01.2017 21:00:00 -0,1 -3,3 8 4 8 5 E 1027,8 4,5 0,0
22.01.2017 20:00:00 1,2 -3,5 4 2 9 5 E 1027,6 5 0,0
22.01.2017 19:00:00 2,3 -3,0 7 4 8 5 ESE 1027,1 6 0,0
22.01.2017 18:00:00 1,8 -4,1 4 2 6 3 E 1026,8 7 0,0
22.01.2017 17:00:00 5,2 -3,1 3 2 7 4 ENE 1026,4 8 0,0
22.01.2017 16:00:00 6,6 -3,4 4 2 13 7 NE 1026,0 11 0,0
22.01.2017 15:00:00 6,6 -4,8 9 5 14 7 ENE 1025,9 14 0,0
22.01.2017 14:00:00 6,1 -5,0 9 5 13 7 E 1026,3 15 0,0
22.01.2017 13:00:00 5,5 -3,6 6 4 16 9 E 1026,8 8 0,0
22.01.2017 12:00:00 2,9 -2,8 12 7 21 11 E 1027,4 6 0,0
22.01.2017 11:00:00 0,4 -2,2 11 6 16 8 E 1027,5 3,9 0,0
22.01.2017 10:00:00 -2,4 -4,0 11 6 18 10 E 1027,2 3,0 0,0
22.01.2017 09:00:00 -3,8 -4,9 11 6 15 8 E 1026,8 2,6 0,0
22.01.2017 08:00:00 -3,9 -4,9 13 7 15 8 E 1026,3 2,5 0,0
22.01.2017 07:00:00 -3,9 -4,9 10 6 14 8 E 1026,3 2,6 0,0
22.01.2017 06:00:00 -4,0 -5,1 9 5 12 6 E 1026,2 2,7 0,0
22.01.2017 05:00:00 -4,2 -5,3 5 3 10 5 ENE 1026,3 2,5 0,0
22.01.2017 04:00:00 -4,2 -5,3 4 2 12 6 ENE 1026,7 2,9 0,0
22.01.2017 03:00:00 -3,2 -4,3 9 5 13 7 E 1027,2 2,9 0,0
22.01.2017 02:00:00 -3,5 -4,3 6 4 10 5 ENE 1027,3 2,9 0,0
22.01.2017 01:00:00 -3,2 -4,3 8 4 10 6 E 1027,3 2,4 0,0
22.01.2017 00:00:00 -3,4 -4,7 6 3 9 5 ENE 1027,2 2,8 0,0
21.01.2017 23:00:00 -2,4 -3,7 7 4 12 7 E 1026,9 2,9 0,0
21.01.2017 22:00:00 -1,4 -3,3 7 4 14 7 E 1026,7 3,1 0,0
21.01.2017 21:00:00 -2,1 -3,8 9 5 11 6 E 1026,6 3,1 0,0
21.01.2017 20:00:00 -0,3 -3,3 8 4 16 8 E 1026,4 4,2 0,0
21.01.2017 19:00:00 0,0 -3,6 9 5 14 8 ESE 1026,3 4,4 0,0
21.01.2017 18:00:00 0,4 -3,5 7 4 11 6 E 1026,3 5 0,0
21.01.2017 17:00:00 1,5 -4,0 6 3 16 9 E 1026,0 6 0,0
21.01.2017 16:00:00 2,0 -4,3 11 6 16 9 ESE 1026,1 6 0,0
21.01.2017 15:00:00 1,4 -4,1 10 6 18 10 ESE 1026,2 6 0,0
21.01.2017 14:00:00 0,6 -4,6 11 6 19 10 SE 1026,5 6 0,0
21.01.2017 13:00:00 -0,5 -4,9 13 7 20 11 SE 1027,0 4,6 0,0
21.01.2017 12:00:00 -1,7 -5,6 11 6 23 13 ESE 1027,6 7 0,0
21.01.2017 11:00:00 -2,4 -5,7 13 7 18 10 ESE 1027,9 7 0,0
21.01.2017 10:00:00 -3,1 -5,7 11 6 19 10 ESE 1027,8 7 0,0
21.01.2017 09:00:00 -3,6 -6,1 10 5 18 10 ESE 1027,7 8 0,0
21.01.2017 08:00:00 -4,2 -6,3 9 5 13 7 ESE 1028,0 9 0,0
21.01.2017 07:00:00 -4,9 -6,7 8 5 12 6 E 1027,8 9 0,0
21.01.2017 06:00:00 -4,6 -6,4 10 5 14 8 E 1028,0 9 0,0
21.01.2017 05:00:00 -4,0 -6,3 11 6 13 7 E 1028,5 9 0,0
21.01.2017 04:00:00 -4,2 -6,0 8 5 9 5 E 1028,9 7 0,0
21.01.2017 03:00:00 -4,0 -5,8 5 3 9 5 E 1029,4 7 0,0
21.01.2017 02:00:00 -4,0 -5,7 6 3 11 6 ENE 1029,6 7 0,0
21.01.2017 01:00:00 -3,7 -5,7 8 4 11 6 ENE 1029,9 7 0,0
21.01.2017 00:00:00 -3,1 -5,6 5 3 8 4 E 1030,0 7 0,0
20.01.2017 23:00:00 -2,7 -5,7 6 4 10 5 E 1030,2 10 0,0
20.01.2017 22:00:00 -2,4 -5,7 7 4 17 9 E 1030,2 7 0,0
20.01.2017 21:00:00 -1,6 -5,8 11 6 16 9 E 1030,2 12 0,0
20.01.2017 20:00:00 -1,8 -6,0 8 4 14 8 ENE 1030,2 9 0,0
20.01.2017 19:00:00 -1,4 -6,0 8 4 9 5 E 1029,9 10 0,0
20.01.2017 18:00:00 -0,5 -6,1 4 2 16 9 E 1030,0 17 0,0
20.01.2017 17:00:00 1,2 -6,2 10 5 19 10 E 1030,0 16 0,0
20.01.2017 16:00:00 1,6 -6,0 11 6 19 11 E 1030,0 13 0,0
20.01.2017 15:00:00 1,5 -6,1 14 7 23 13 E 1030,1 14 0,0
20.01.2017 14:00:00 1,2 -6,2 15 8 27 14 E 1030,2 18 0,0
20.01.2017 13:00:00 1,0 -6,3 14 7 22 12 E 1031,0 17 0,0
20.01.2017 12:00:00 0,4 -6,7 14 8 22 12 E 1031,6 16 0,0
20.01.2017 11:00:00 -0,7 -6,3 11 6 19 10 E 1032,2 15 0,0
20.01.2017 10:00:00 -2,1 -6,5 10 5 16 9 E 1031,9 18 0,0
20.01.2017 09:00:00 -3,6 -6,9 10 6 18 10 E 1032,1 16 0,0
20.01.2017 08:00:00 -3,6 -7,0 11 6 18 10 E 1032,1 17 0,0
20.01.2017 07:00:00 -3,5 -6,8 13 7 18 10 E 1032,0 13 0,0
20.01.2017 06:00:00 -3,6 -6,6 11 6 15 8 E 1032,1 13 0,0
20.01.2017 05:00:00 -3,4 -6,5 9 5 18 10 ENE 1032,7 11 0,0
20.01.2017 04:00:00 -2,8 -5,9 11 6 16 9 ENE 1032,9 10 0,0
20.01.2017 03:00:00 -2,6 -5,9 11 6 15 8 ENE 1033,4 10 0,0
20.01.2017 02:00:00 -2,6 -5,7 8 5 12 6 ENE 1033,4 9 0,0
20.01.2017 01:00:00 -2,3 -5,6 10 5 16 8 ENE 1033,6 8 0,0
20.01.2017 00:00:00 -2,2 -5,5 11 6 17 9 ENE 1034,0 8 0,0
19.01.2017 23:00:00 -1,6 -5,3 13 7 21 11 E 1033,9 12 0,0
19.01.2017 22:00:00 -0,7 -5,1 15 8 25 13 E 1033,8 10 0,0
19.01.2017 21:00:00 -0,1 -4,5 18 10 27 15 E 1033,9 10 0,0
19.01.2017 20:00:00 -0,3 -4,0 14 8 21 12 ENE 1033,5 9 0,0
19.01.2017 19:00:00 0,4 -3,5 14 7 29 16 ENE 1033,0 12 0,0
19.01.2017 18:00:00 0,9 -4,0 18 10 24 13 NE 1033,0 11 0,0
19.01.2017 17:00:00 2,1 -4,2 16 9 26 14 NE 1032,8 16 0,0
19.01.2017 16:00:00 2,9 -4,6 21 11 27 15 NE 1032,9 19 0,0
19.01.2017 15:00:00 3,1 -5,1 18 10 28 15 ENE 1033,2 14 0,0
19.01.2017 14:00:00 2,9 -4,3 15 8 31 17 NE 1033,9 13 0,0
19.01.2017 13:00:00 1,8 -5,6 18 10 33 18 ENE 1034,5 13 0,0
19.01.2017 12:00:00 0,8 -6,5 18 10 26 14 ENE 1035,0 13 0,0
19.01.2017 11:00:00 -0,2 -6,8 18 10 30 16 ENE 1035,0 12 0,0
19.01.2017 10:00:00 -1,1 -7,1 19 11 28 15 ENE 1034,7 15 0,0
19.01.2017 09:00:00 -2,6 -7,3 15 8 21 12 ENE 1034,6 12 0,0
19.01.2017 08:00:00 -2,3 -7,2 12 7 19 11 ENE 1034,9 13 0,0
19.01.2017 07:00:00 -1,8 -6,0 13 7 23 13 ENE 1034,6 10 0,0
19.01.2017 06:00:00 -1,9 -5,4 12 6 20 11 ENE 1034,7 10 0,0
19.01.2017 05:00:00 -1,8 -6,6 14 7 21 11 NE 1035,0 14 0,0
19.01.2017 04:00:00 -2,1 -6,8 13 7 18 10 NE 1035,2 13 0,0
19.01.2017 03:00:00 -1,7 -6,1 13 7 20 11 ENE 1035,5 11 0,0
19.01.2017 02:00:00 -2,0 -6,0 14 8 22 12 NE 1035,7 10 0,0
19.01.2017 01:00:00 -1,6 -6,0 15 8 22 12 ENE 1035,8 10 0,0
19.01.2017 00:00:00 -1,4 -5,8 12 7 24 13 ENE 1035,9 10 0,0
18.01.2017 23:00:00 -0,8 -5,4 16 8 22 12 ENE 1036,1 10 0,0
18.01.2017 22:00:00 -0,6 -5,4 13 7 27 15 ENE 1035,9 11 0,0
18.01.2017 21:00:00 -0,3 -5,5 15 8 27 14 ENE 1035,8 12 0,0
18.01.2017 20:00:00 0,1 -4,7 17 9 31 17 NE 1035,8 13 0,0
18.01.2017 19:00:00 0,6 -4,6 21 12 33 18 NE 1035,7 13 0,0
18.01.2017 18:00:00 0,6 -4,1 20 11 32 17 NE 1035,7 14 0,0
18.01.2017 17:00:00 1,4 -5,3 21 11 35 19 NE 1035,5 16 0,0
18.01.2017 16:00:00 2,4 -5,5 17 9 27 15 NE 1035,8 16 0,0
18.01.2017 15:00:00 2,7 -5,7 16 9 31 17 NE 1036,0 29 0,0
18.01.2017 14:00:00 2,4 -6,2 18 10 26 14 NE 1036,3 29 0,0
18.01.2017 13:00:00 1,9 -5,5 18 10 29 16 NE 1036,5 20 0,0
18.01.2017 12:00:00 0,4 -5,6 19 10 28 15 NE 1037,2 7 0,0
18.01.2017 11:00:00 -0,7 -5,7 18 10 27 15 ENE 1037,6 18 0,0
18.01.2017 10:00:00 -1,9 -6,1 17 9 25 14 ENE 1037,7 16 0,0
18.01.2017 09:00:00 -3,5 -6,3 13 7 20 11 NE 1037,5 9 0,0
18.01.2017 08:00:00 -3,4 -5,9 14 8 20 11 ENE 1037,1 7 0,0
18.01.2017 07:00:00 -3,8 -5,6 13 7 17 9 NE 1037,3 6 0,0
18.01.2017 06:00:00 -4,2 -6,0 9 5 13 7 NE 1037,3 6 0,0
18.01.2017 05:00:00 -3,6 -5,8 10 5 15 8 ENE 1037,3 6 0,0
18.01.2017 04:00:00 -3,1 -5,3 11 6 16 9 E 1037,4 7 0,0
18.01.2017 03:00:00 -3,5 -5,8 8 4 14 8 ENE 1037,8 9 0,0
18.01.2017 02:00:00 -2,9 -5,7 10 5 19 11 NE 1037,6 9 0,0
18.01.2017 01:00:00 -2,2 -5,4 14 8 21 11 ENE 1037,5 10 0,0
18.01.2017 00:00:00 -2,1 -5,4 16 9 24 13 E 1037,3 9 0,0
17.01.2017 23:00:00 -1,6 -5,3 16 9 27 14 E 1037,4 10 0,0
17.01.2017 22:00:00 -1,4 -5,6 14 8 21 11 E 1037,2 12 0,0
17.01.2017 21:00:00 -1,0 -5,1 11 6 18 10 ENE 1037,0 11 0,0
17.01.2017 20:00:00 -0,7 -5,1 11 6 17 9 ENE 1037,0 11 0,0
17.01.2017 19:00:00 -1,8 -5,3 10 6 15 8 NNE 1036,9 11 0,0
17.01.2017 18:00:00 -0,5 -5,1 8 5 13 7 NE 1036,5 15 0,0
17.01.2017 17:00:00 1,4 -4,1 8 4 17 9 NE 1036,3 16 0,0
17.01.2017 16:00:00 2,4 -4,1 11 6 17 9 NE 1036,0 16 0,0
17.01.2017 15:00:00 2,6 -3,5 11 6 15 8 NE 1036,0 16 0,0
17.01.2017 14:00:00 2,2 -2,1 6 4 9 5 ENE 1036,0 12 0,2
17.01.2017 13:00:00 1,2 -1,0 6 4 10 6 NE 1036,5 8 0,0
17.01.2017 12:00:00 -0,1 -1,4 6 3 13 7 ENE 1036,8 4,9 0,0
17.01.2017 11:00:00 -1,5 -2,1 9 5 16 8 E 1036,5 3,0 0,0
17.01.2017 10:00:00 -2,2 -2,5 13 7 20 11 E 1036,2 2,2 0,0
17.01.2017 09:00:00 -2,1 -2,2 14 8 20 11 E 1035,5 2,1 0,0
17.01.2017 08:00:00 -1,7 -1,8 14 8 20 11 E 1034,8 1,5 0,0
17.01.2017 07:00:00 -1,4 -1,5 13 7 18 10 E 1034,3 1,9 0,0
17.01.2017 06:00:00 -0,8 -1,1 11 6 19 11 E 1033,6 3,2 0,0
17.01.2017 05:00:00 -0,8 -1,2 11 6 16 9 E 1033,3 3,2 0,0
17.01.2017 04:00:00 -1,3 -1,7 9 5 12 7 E 1033,0 5 0,0
17.01.2017 03:00:00 -0,3 -0,7 10 5 13 7 E 1032,7 4,6 0,0
17.01.2017 02:00:00 -0,1 -0,5 9 5 11 6 E 1032,2 4,3 0,0
17.01.2017 01:00:00 0,0 -0,4 9 5 14 8 E 1032,2 3,5 0,0

tt = Température de l'air
td = dewpoint
ff = Vitesse du vent
fx = gusts
dd = Direction du vent
ppp = reduced air pressure
vv = visibility
rr = Quantités de précipitations

stations d'obs. à proximité